Weather History for KELD - January, 2013

Change the Weather History Date:

Tuesday, January 22, 2013

  Actual Average Record
Temperature  
Mean Temperature 41 °F 44 °F  
Max Temperature 48 °F 55 °F 78 °F (1943)
Min Temperature 34 °F 33 °F 9 °F (1918)
Degree Days  
Heating Degree Days 24 21  
Month to date heating degree days 464 471  
Since 1 July heating degree days 1442 1558  
Cooling Degree Days 0 0  
Month to date cooling degree days 2 0  
Year to date cooling degree days 2 0  
Moisture  
Dew Point 25 °F    
Average Humidity 59    
Maximum Humidity 76    
Minimum Humidity 41    
Precipitation  
Precipitation 0.00 in 0.15 in 3.00 in (1953)
Month to date precipitation 3.02 2.96  
Year to date precipitation 3.02 2.96  
Snow  
Snow 0.00 in - - ()
Month to date snowfall 0.1  
Since 1 July snowfall 0.1  
Snow Depth 0.00 in    
Sea Level Pressure  
Sea Level Pressure 30.34 in    
Wind  
Wind Speed 4 mph (East)    
Max Wind Speed 10 mph    
Max Gust Speed 13 mph    
Visibility 10 miles    
Events      
T = Trace of Precipitation, MM = Missing Value Source: NWS Daily Summary

Daily Weather History Graph

Daily Weather History Graph

Search for Another Location

Airport or City:

Trip Planner

Search our weather history database for the weather conditions in past years. The results will help you decide how hot, cold, wet, or windy it might be!

Date:

Astronomy

Jan. 22, 2013 Rise Set
Actual Time 7:12 AM CST 5:33 PM CST
Civil Twilight 6:45 AM CST 6:00 PM CST
Nautical Twilight 6:15 AM CST 6:30 PM CST
Astronomical Twilight 5:46 AM CST 6:59 PM CST
Moon 1:59 PM CST (1/22) 3:32 AM CST (1/22)
Length of Visible Light 11h 14m
Length of Day
10h 21m
Waxing Gibbous, 83% of the Moon is Illuminated
Jan 22
Waxing Gibbous
Jan 26
Full
Feb 3
Last Quarter
Feb 10
New
Feb 17
First Quarter

Hourly Weather History & Observations

Time (CST) Temp. Windchill Dew Point Humidity Pressure Visibility Wind Dir Wind Speed Gust Speed Precip Events Conditions
12:53 AM 37.0 °F 34.5 °F 26.1 °F 65% 30.31 in 10.0 mi ENE 3.5 mph - N/A   Mostly Cloudy
1:53 AM 35.1 °F - 25.0 °F 67% 30.32 in 10.0 mi Calm Calm - N/A   Mostly Cloudy
2:53 AM 36.0 °F 29.6 °F 24.1 °F 62% 30.35 in 10.0 mi ENE 8.1 mph - N/A   Overcast
3:53 AM 37.0 °F 32.4 °F 23.0 °F 57% 30.33 in 10.0 mi ENE 5.8 mph - N/A   Overcast
4:53 AM 37.0 °F 31.6 °F 21.9 °F 54% 30.34 in 10.0 mi East 6.9 mph - N/A   Overcast
5:53 AM 37.0 °F 31.6 °F 21.0 °F 52% 30.34 in 10.0 mi East 6.9 mph - N/A   Overcast
6:36 AM 35.6 °F 30.7 °F 21.2 °F 56% 30.35 in 10.0 mi East 5.8 mph - N/A   Mostly Cloudy
6:53 AM 36.0 °F 31.1 °F 21.0 °F 55% 30.36 in 10.0 mi East 5.8 mph - N/A   Overcast
7:53 AM 36.0 °F 32.1 °F 21.9 °F 57% 30.37 in 10.0 mi ENE 4.6 mph - N/A   Overcast
8:53 AM 37.0 °F 31.6 °F 21.9 °F 54% 30.39 in 10.0 mi ENE 6.9 mph - N/A   Overcast
9:53 AM 39.0 °F 35.7 °F 23.0 °F 53% 30.40 in 10.0 mi SE 4.6 mph - N/A   Overcast
10:44 AM 41.0 °F 37.1 °F 23.0 °F 49% 30.40 in 10.0 mi East 5.8 mph - N/A   Overcast
10:53 AM 42.1 °F 37.7 °F 21.9 °F 45% 30.41 in 10.0 mi ENE 6.9 mph - N/A   Overcast
11:53 AM 44.1 °F 40.1 °F 23.0 °F 43% 30.38 in 10.0 mi SE 6.9 mph - N/A   Overcast
12:53 PM 45.0 °F 41.8 °F 23.0 °F 42% 30.34 in 10.0 mi East 5.8 mph - N/A   Overcast
1:15 PM 46.4 °F 43.5 °F 24.8 °F 43% 30.33 in 10.0 mi ENE 5.8 mph - N/A   Overcast
1:53 PM 46.0 °F 43.1 °F 24.1 °F 42% 30.32 in 10.0 mi East 5.8 mph - N/A   Overcast
2:53 PM 46.9 °F - 25.0 °F 42% 30.31 in 10.0 mi SE 5.8 mph - N/A   Overcast
3:53 PM 48.0 °F - 27.0 °F 44% 30.31 in 10.0 mi ESE 5.8 mph - N/A   Overcast
4:10 PM 48.2 °F - 26.6 °F 43% 30.30 in 10.0 mi Calm Calm - N/A   Overcast
4:53 PM 46.9 °F - 27.0 °F 46% 30.30 in 10.0 mi East 5.8 mph - N/A   Mostly Cloudy
5:06 PM 46.4 °F 43.5 °F 28.4 °F 50% 30.30 in 10.0 mi ENE 5.8 mph - N/A   Scattered Clouds
5:53 PM 42.1 °F - 28.0 °F 58% 30.31 in 10.0 mi Calm Calm - N/A   Partly Cloudy
6:53 PM 37.9 °F - 28.9 °F 70% 30.32 in 10.0 mi Calm Calm - N/A   Clear
7:53 PM 37.9 °F - 30.9 °F 76% 30.31 in 10.0 mi Calm Calm - N/A   Scattered Clouds
8:53 PM 39.0 °F - 30.9 °F 73% 30.32 in 10.0 mi Calm Calm - N/A   Overcast
9:53 PM 37.9 °F 35.5 °F 28.9 °F 70% 30.31 in 10.0 mi East 3.5 mph - N/A   Partly Cloudy
10:53 PM 37.0 °F - 30.9 °F 79% 30.31 in 10.0 mi Calm Calm - N/A   Partly Cloudy
11:53 PM 37.0 °F - 32.0 °F 82% 30.31 in 10.0 mi Calm Calm - N/A   Overcast